Regional Weather Roundup
Issued by NWS

Home | Current Version | Previous Version | Text Only | Print | Product List | Glossary Off
Versions: 1 2 3 4 5 6 7 8 9 10 11 12 13 14 15 16 17 18 19 20 21 22 23 24 25 26 27 28 29 30 31 32 33 34 35 36 37 38 39 40 41 42 43 44 45 46 47 48 49 50

000
ASUS43 KFSD 110502
RWRSD

WEATHER ROUNDUP FOR SOUTH DAKOTA
NATIONAL WEATHER SERVICE SIOUX FALLS SD
1100 PM CST SUN DEC 10 2017

NOTE: "FAIR" INDICATES FEW OR NO CLOUDS BELOW 12,000 FEET WITH NO
SIGNIFICANT WEATHER AND/OR OBSTRUCTIONS TO VISIBILITY.


SDZ001>005-009-010-012>017-110600-
NORTHWEST AND NORTH CENTRAL SOUTH DAKOTA

CITY           SKY/WX    TMP DP  RH WIND       PRES   REMARKS
BUFFALO          N/A     45  17  32 NW30      30.01R
FAITH            N/A     41  18  39 W18       30.02S
MOBRIDGE       CLEAR     39  24  55 N9        29.93F
$$

SDZ012>016-024>037-041>051-057-063-072>074-110600-
SOUTHWEST AND SOUTH CENTRAL SOUTH DAKOTA

CITY           SKY/WX    TMP DP  RH WIND       PRES   REMARKS
RAPID CTY ARPT CLEAR     51   9  18 NW16G25   30.11F
PIERRE         CLOUDY    45  21  38 W15       29.98F
CUSTER         CLEAR     45   4  18 NW12G21   30.16F
ELLSWORTH AFB  CLEAR     52  10  18 NW25G31   30.09F
PHILIP         CLOUDY    47  16  29 NW14      30.05F
PINE RIDGE     CLOUDY    41  19  41 W8        30.18S
SPEARFISH      FAIR      50  12  22 W18G29    30.17S
WINNER         FAIR      47  18  31 W15       30.02F
$$

SDZ004>011-016>023-039-040-110600-
NORTHEAST SOUTH DAKOTA

CITY           SKY/WX    TMP DP  RH WIND       PRES   REMARKS
ABERDEEN       CLOUDY    34  29  82 SW6       29.90F WCI  29
WATERTOWN      MOCLDY    33  27  78 SW6       29.88F WCI  28
BROOKINGS      CLOUDY    35  28  75 S5        29.91
SISSETON         N/A     39  29  67 W12       29.85F
$$

SDZ017-020-022-023-036>040-048>070-110600-
SOUTHEAST SOUTH DAKOTA

CITY           SKY/WX    TMP DP  RH WIND       PRES   REMARKS
SIOUX FALLS    CLOUDY    36  29  75 SW5       29.96F
HURON          MOCLDY    35  27  72 W3        29.93F
CHAMBERLAIN    PTCLDY    44  23  42 W12       29.99R
MITCHELL       CLOUDY    39  27  62 S8        29.94F
YANKTON        PTCLDY    35  25  66 SW7       30.00F WCI  29
$$

ABBREVIATIONS USED IN REMARKS
   TC - TEMPERATURE IN CELSIUS
  WCI - WIND CHILL INDEX
   HX - HEAT INDEX
  VSB - VISIBILITY




USA.gov is the U.S. government's official web portal to all federal, state and local government web resources and services.